When you browse on this site, cookies collect data to enhance your experience and personalize the content and advertising you see.
Visit our Privacy Policy to learn more. By continuing to use the site, you agree to this use of cookies and data.
  • In United Kingdom
  • List of Countries
  • For 7 days
  • Water Temperature
  • Weather Map
  • Weather Widgets
  • user-avatar
    Login

    Hourly Weather Qiryat Gat

    Today, 16 September, Monday

    Time Temperature Precipitation Wind Pressure Humidity
    00:00 +22°C° 0 mm 1 mps 746 mmHg 87%
    01:00 +22°C° 0 mm 1 mps 746 mmHg 88%
    02:00 +21°C° 0 mm 2 mps 746 mmHg 88%
    03:00 +21°C° 0 mm 2 mps 747 mmHg 89%
    04:00 +21°C° 0 mm 2 mps 747 mmHg 89%
    05:00 +21°C° 0 mm 2 mps 747 mmHg 90%
    06:00 +24°C° 0 mm 2 mps 747 mmHg 82%
    07:00 +25°C° 0 mm 2 mps 747 mmHg 73%
    08:00 +27°C° 0 mm 2 mps 748 mmHg 65%
    09:00 +29°C° 0 mm 2 mps 748 mmHg 58%
    10:00 +30°C° 0 mm 3 mps 748 mmHg 50%
    11:00 +33°C° 0 mm 4 mps 748 mmHg 43%
    12:00 +33°C° 0 mm 4 mps 747 mmHg 44%
    13:00 +33°C° 0 mm 5 mps 747 mmHg 45%
    14:00 +33°C° 0 mm 6 mps 747 mmHg 47%
    15:00 +32°C° 0 mm 6 mps 746 mmHg 51%
    16:00 +30°C° 0 mm 5 mps 746 mmHg 55%
    17:00 +29°C° 0 mm 5 mps 746 mmHg 59%
    18:00 +28°C° 0 mm 4 mps 747 mmHg 65%
    19:00 +26°C° 0 mm 3 mps 747 mmHg 71%
    20:00 +25°C° 0 mm 3 mps 747 mmHg 77%
    21:00 +24°C° 0 mm 2 mps 747 mmHg 78%
    22:00 +24°C° 0 mm 2 mps 747 mmHg 79%
    23:00 +23°C° 0 mm 2 mps 748 mmHg 81%

    Tomorrow, 17 September, Tuesday

    Time Temperature Precipitation Wind Pressure Humidity
    00:00 +23°C° 0 mm 2 mps 747 mmHg 80%
    01:00 +22°C° 0 mm 1 mps 747 mmHg 80%
    02:00 +22°C° 0 mm 1 mps 747 mmHg 80%
    03:00 +22°C° 0 mm 1 mps 747 mmHg 81%
    04:00 +22°C° 0 mm 1 mps 748 mmHg 83%
    05:00 +22°C° 0 mm 1 mps 748 mmHg 84%
    06:00 +24°C° 0 mm 1 mps 748 mmHg 75%
    07:00 +26°C° 0 mm 2 mps 749 mmHg 66%
    08:00 +28°C° 0 mm 2 mps 749 mmHg 58%
    09:00 +30°C° 0 mm 3 mps 749 mmHg 52%
    10:00 +32°C° 0 mm 4 mps 749 mmHg 46%
    11:00 +34°C° 0 mm 5 mps 749 mmHg 40%
    12:00 +34°C° 0 mm 5 mps 748 mmHg 40%
    13:00 +34°C° 0 mm 6 mps 748 mmHg 39%
    14:00 +34°C° 0 mm 7 mps 747 mmHg 39%
    15:00 +33°C° 0 mm 7 mps 747 mmHg 43%
    16:00 +32°C° 0 mm 7 mps 747 mmHg 47%
    17:00 +29°C° 0 mm 7 mps 747 mmHg 51%
    18:00 +28°C° 0 mm 6 mps 747 mmHg 58%
    19:00 +26°C° 0 mm 5 mps 748 mmHg 64%
    20:00 +25°C° 0 mm 4 mps 748 mmHg 70%
    21:00 +23°C° 0 mm 4 mps 748 mmHg 73%
    22:00 +24°C° 0 mm 3 mps 748 mmHg 76%
    23:00 +22°C° 0 mm 3 mps 748 mmHg 80%

    Day after tomorrow, 18 September, Wednesday

    Time Temperature Precipitation Wind Pressure Humidity
    00:00 +23°C° 0 mm 2 mps 748 mmHg 81%
    01:00 +21°C° 0 mm 2 mps 748 mmHg 81%
    02:00 +21°C° 0 mm 2 mps 748 mmHg 82%
    03:00 +21°C° 0 mm 2 mps 748 mmHg 82%
    04:00 +20°C° 0 mm 2 mps 748 mmHg 81%
    05:00 +21°C° 0 mm 1 mps 748 mmHg 80%
    06:00 +24°C° 0 mm 2 mps 748 mmHg 69%
    07:00 +26°C° 0 mm 2 mps 749 mmHg 57%
    08:00 +29°C° 0 mm 2 mps 749 mmHg 46%
    09:00 +30°C° 0 mm 3 mps 749 mmHg 41%
    10:00 +33°C° 0 mm 3 mps 749 mmHg 36%
    11:00 +35°C° 0 mm 4 mps 748 mmHg 31%
    12:00 +35°C° 0 mm 5 mps 748 mmHg 34%
    13:00 +34°C° 0 mm 6 mps 747 mmHg 38%
    14:00 +34°C° 0 mm 7 mps 747 mmHg 41%
    15:00 +33°C° 0 mm 7 mps 747 mmHg 47%
    16:00 +30°C° 0 mm 7 mps 747 mmHg 52%
    17:00 +29°C° 0 mm 7 mps 747 mmHg 58%
    18:00 +28°C° 0 mm 5 mps 747 mmHg 64%
    19:00 +27°C° 0 mm 4 mps 747 mmHg 70%
    20:00 +25°C° 0 mm 3 mps 748 mmHg 77%
    21:00 +25°C° 0 mm 3 mps 748 mmHg 77%
    22:00 +24°C° 0 mm 2 mps 748 mmHg 78%
    23:00 +24°C° 0 mm 2 mps 748 mmHg 79%

    19 September, Thursday

    Time Temperature Precipitation Wind Pressure Humidity
    00:00 +24°C° 0 mm 1 mps 748 mmHg 81%
    01:00 +23°C° 0 mm 1 mps 748 mmHg 83%
    02:00 +23°C° 0 mm 1 mps 748 mmHg 84%
    03:00 +23°C° 0 mm 1 mps 748 mmHg 85%
    04:00 +23°C° 0 mm 1 mps 747 mmHg 86%
    05:00 +22°C° 0 mm 1 mps 747 mmHg 87%
    06:00 +24°C° 0 mm 2 mps 748 mmHg 79%
    07:00 +26°C° 0 mm 2 mps 748 mmHg 70%
    08:00 +28°C° 0 mm 2 mps 748 mmHg 62%
    09:00 +30°C° 0 mm 3 mps 748 mmHg 54%
    10:00 +33°C° 0 mm 4 mps 748 mmHg 47%
    11:00 +35°C° 0 mm 4 mps 748 mmHg 39%
    12:00 +35°C° 0 mm 5 mps 747 mmHg 41%
    13:00 +35°C° 0 mm 6 mps 747 mmHg 42%
    14:00 +35°C° 0 mm 7 mps 746 mmHg 44%
    15:00 +33°C° 0 mm 6 mps 746 mmHg 49%
    16:00 +32°C° 0 mm 6 mps 746 mmHg 54%
    17:00 +29°C° 0 mm 6 mps 746 mmHg 59%
    18:00 +28°C° 0 mm 5 mps 746 mmHg 66%
    19:00 +27°C° 0 mm 4 mps 747 mmHg 73%
    20:00 +25°C° 0 mm 3 mps 747 mmHg 80%
    21:00 +25°C° 0 mm 2 mps 747 mmHg 81%
    22:00 +24°C° 0 mm 2 mps 747 mmHg 82%
    23:00 +24°C° 0 mm 2 mps 747 mmHg 83%

    20 September, Friday

    Time Temperature Precipitation Wind Pressure Humidity
    00:00 +24°C° 0 mm 1 mps 747 mmHg 85%
    01:00 +23°C° 0 mm 1 mps 747 mmHg 87%
    02:00 +23°C° 0 mm 1 mps 747 mmHg 89%
    03:00 +23°C° 0 mm 1 mps 747 mmHg 89%
    04:00 +22°C° 0 mm 1 mps 746 mmHg 90%
    05:00 +22°C° 0 mm 1 mps 746 mmHg 90%
    06:00 +24°C° 0 mm 1 mps 747 mmHg 82%
    07:00 +26°C° 0 mm 1 mps 747 mmHg 74%
    08:00 +28°C° 0 mm 2 mps 747 mmHg 66%
    09:00 +29°C° 0 mm 3 mps 747 mmHg 58%
    10:00 +31°C° 0 mm 3 mps 747 mmHg 50%
    11:00 +34°C° 0 mm 4 mps 746 mmHg 42%
    12:00 +33°C° 0 mm 5 mps 746 mmHg 43%
    13:00 +33°C° 0 mm 5 mps 746 mmHg 43%
    14:00 +33°C° 0 mm 6 mps 745 mmHg 44%
    15:00 +32°C° 0 mm 6 mps 745 mmHg 48%
    16:00 +29°C° 0 mm 6 mps 745 mmHg 53%
    17:00 +28°C° 0 mm 6 mps 745 mmHg 57%
    18:00 +27°C° 0 mm 5 mps 746 mmHg 64%
    19:00 +25°C° 0 mm 4 mps 746 mmHg 71%
    20:00 +24°C° 0 mm 3 mps 747 mmHg 77%
    21:00 +23°C° 0 mm 2 mps 747 mmHg 79%
    22:00 +23°C° 0 mm 1 mps 747 mmHg 81%
    23:00 +22°C° 0 mm 1 mps 747 mmHg 83%

    21 September, Saturday

    Time Temperature Precipitation Wind Pressure Humidity
    00:00 +21°C° 0 mm 1 mps 747 mmHg 84%
    01:00 +21°C° 0 mm 1 mps 747 mmHg 85%
    02:00 +21°C° 0 mm 1 mps 746 mmHg 85%
    03:00 +20°C° 0 mm 1 mps 746 mmHg 85%
    04:00 +20°C° 0 mm 1 mps 747 mmHg 86%
    05:00 +20°C° 0 mm 1 mps 747 mmHg 86%
    06:00 +22°C° 0 mm 1 mps 747 mmHg 76%
    07:00 +24°C° 0 mm 1 mps 747 mmHg 66%
    08:00 +26°C° 0 mm 1 mps 747 mmHg 57%
    09:00 +28°C° 0 mm 2 mps 747 mmHg 50%
    10:00 +30°C° 0 mm 2 mps 747 mmHg 43%
    11:00 +31°C° 0 mm 3 mps 747 mmHg 36%
    12:00 +32°C° 0 mm 4 mps 747 mmHg 39%
    13:00 +32°C° 0 mm 5 mps 746 mmHg 41%
    14:00 +32°C° 0 mm 6 mps 746 mmHg 43%
    15:00 +30°C° 0 mm 5 mps 746 mmHg 48%
    16:00 +29°C° 0 mm 5 mps 746 mmHg 54%
    17:00 +27°C° 0 mm 5 mps 746 mmHg 59%
    18:00 +26°C° 0 mm 4 mps 746 mmHg 67%
    19:00 +24°C° 0 mm 3 mps 746 mmHg 74%
    20:00 +22°C° 0 mm 1 mps 747 mmHg 82%
    21:00 +22°C° 0 mm 1 mps 746 mmHg 83%
    22:00 +21°C° 0 mm 1 mps 746 mmHg 85%
    23:00 +21°C° 0 mm 1 mps 746 mmHg 86%
    Show more